Вернуться в каталог

STARLINK-35672

АктивенСвязьVLEO
NORAD 66394·PAYLOAD·🇺🇸 United States

Запущен Nov 8, 2025 с Cape Canaveral Space Force Station

Loading…

Ближайшие Пролёты (ближайшие 24 часа)

TLE

СвежийSource: CelesTrak SupGP

Эпоха: Sep 14, 2026, 20:51 UTC

1 66394C 25257Q   26257.86923611  .00039574  00000+0  11696-2 0  2576
2 66394  53.1585  54.1417 0001078  75.4253  24.9598 15.34360603    10

Отслеживайте STARLINK-35672 в реальном времени с AllMySat

Download on the App Store